Location: Arborea
(39.7744°N, 8.5819°E)
Time: 03:46:45
(UTC+00:00)

USA 229 - Pass Details

Date: 04 June 2022
Orbit: 938 x 1274 km, 63.4° (Epoch: 24 May)

Event Time Altitude Azimuth Distance (km) Brightness Sun altitude
Rises 21:16:56 0° 328° (NNW) 3,977 8.3 -21.0°
Reaches altitude 10° 21:19:39 10° 334° (NNW) 3,062 7.3 -21.3°
Maximum altitude 21:26:53 53° 50° (NE) 1,459 4.4 -22.0°
Enters shadow 21:30:52 29° 113° (ESE) 2,114 4.8 -22.3°
